STARLINK-35974

Last updated on Mon Dec 15 2025 00:02:12 GMT+0000 (Coordinated Universal Time)

1 66862U 25281Q 25348.25003472 -.01244046 00000+0 -51566-2 0 9998 2 66862 43.0006 112.9590 0001562 267.6121 285.2228 15.87314835 1543
UTC large
Height (km)
Speed (km/s)
/
Latitude / Longitude
Inclination (degrees)
Orbital Period (minutes)
Azimuth
Elevation
Range (km)
Doppler Factor

Next 0 passes for location: London (51.5072 / 0.1276)

Sorry there are no passes over London.